Quick links : Home Page : Contact Us : Index : Site Map : Search Site : Ephemerides


P/2004 A1 (LONEOS)

Orbital Elements

The following orbital elements are taken from MPC 60921:
P/2004 A1 (LONEOS)
Epoch 2004 Aug. 23.0 TT = JDT 2453240.5
T 2004 Aug. 25.8379 TT                                  MPC
q   5.462523             (2000.0)            P               Q
n   0.0444220      Peri.   20.4848      -0.8215450      -0.5500840
a   7.895942       Node   125.2459      +0.4942143      -0.8181773
e   0.308186       Incl.   10.5768      +0.2842816      -0.1673125
P  22.2
From 495 observations 2003 Oct. 25-2007 Aug. 7, mean residual 0".7.
Elements are also available for the current standard epoch:
P/2004 A1 (LONEOS)
Epoch 2008 Nov. 30.0 TT = JDT 2454800.5
T 2004 Sept. 6.5658 TT                                  MPC
q   5.488793             (2000.0)            P               Q
n   0.0438775      Peri.   21.9953      -0.8332168      -0.5322017
a   7.961135       Node   124.9768      +0.4761218      -0.8285122
e   0.310552       Incl.   10.5509      +0.2811723      -0.1741518
P  22.5
An explanation of the orbital elements is available.

These orbital elements are also available in forms suitable for loading into a number of popular planetarium-type software programs.


Ephemeris

The following ephemeris is at intervals of five days. A daily ephemeris covering the same time interval is also available.

Personalized ephemerides for this (and other) objects may be generated using the Minor Planet & Comet Ephemeris Service.

Recent magnitude estimates for this comet (as reported to the ICQ) may be available.

Date    TT    R. A. (2000) Decl.     Delta      r     Elong.  Phase   m1    m2

WARNING!

This comet gets close to the sun during the period covered in the ephemeris below. Observers are warned to be wary of observing comets near the sun. NEVER point any kind of optical instrument at the sun--instant blindness will be the probable result.

2008 08 22 15 54.96 -11 03.4 7.510 7.574 89.8 7.7 19.7 21.3 2008 08 27 15 55.96 -11 13.7 7.599 7.584 85.3 7.6 19.7 21.4 2008 09 01 15 57.14 -11 24.5 7.688 7.594 80.9 7.5 19.7 21.4 2008 09 06 15 58.51 -11 35.5 7.777 7.604 76.4 7.4 19.8 21.4 2008 09 11 16 00.06 -11 46.8 7.863 7.613 72.0 7.2 19.8 21.4 2008 09 16 16 01.78 -11 58.3 7.948 7.623 67.7 7.0 19.8 21.4 2008 09 21 16 03.67 -12 09.9 8.030 7.633 63.3 6.8 19.9 21.4 2008 09 26 16 05.70 -12 21.5 8.110 7.643 59.0 6.5 19.9 21.5 2008 10 01 16 07.88 -12 33.1 8.187 7.652 54.7 6.1 19.9 21.5 2008 10 06 16 10.19 -12 44.7 8.260 7.662 50.5 5.8 19.9 21.5 2008 10 11 16 12.63 -12 56.2 8.329 7.672 46.2 5.4 20.0 21.5 2008 10 16 16 15.18 -13 07.5 8.393 7.682 42.0 5.0 20.0 21.5 2008 10 21 16 17.84 -13 18.5 8.454 7.692 37.8 4.6 20.0 21.5 2008 10 26 16 20.59 -13 29.3 8.509 7.701 33.6 4.1 20.0 21.5 2008 10 31 16 23.42 -13 39.8 8.560 7.711 29.5 3.6 20.0 21.4 2008 11 05 16 26.33 -13 49.9 8.605 7.721 25.4 3.2 20.1 21.4 2008 11 10 16 29.30 -13 59.7 8.644 7.730 21.4 2.7 20.1 21.4 2008 11 15 16 32.32 -14 09.0 8.678 7.740 17.4 2.2 20.1 21.4 2008 11 20 16 35.38 -14 17.8 8.706 7.750 13.7 1.7 20.1 21.4 2008 11 25 16 38.48 -14 26.1 8.728 7.760 10.4 1.3 20.1 21.3 2008 11 30 16 41.59 -14 33.9 8.744 7.769 8.1 1.0 20.1 21.3 2008 12 05 16 44.71 -14 41.2 8.754 7.779 7.7 1.0 20.1 21.3 2008 12 10 16 47.83 -14 47.9 8.758 7.789 9.5 1.2 20.1 21.3 2008 12 15 16 50.93 -14 54.0 8.756 7.798 12.6 1.6 20.1 21.4 2008 12 20 16 54.01 -14 59.5 8.748 7.808 16.2 2.0 20.1 21.4 2008 12 25 16 57.05 -15 04.4 8.733 7.817 20.2 2.5 20.1 21.4 2008 12 30 17 00.04 -15 08.7 8.713 7.827 24.3 3.0 20.1 21.5 2009 01 04 17 02.97 -15 12.4 8.687 7.837 28.4 3.4 20.1 21.5 2009 01 09 17 05.83 -15 15.5 8.656 7.846 32.7 3.9 20.1 21.5 2009 01 14 17 08.60 -15 18.0 8.619 7.856 37.0 4.3 20.1 21.5 2009 01 19 17 11.27 -15 19.9 8.577 7.865 41.3 4.7 20.1 21.6 2009 01 24 17 13.84 -15 21.3 8.531 7.875 45.7 5.1 20.1 21.6 2009 01 29 17 16.29 -15 22.1 8.479 7.885 50.1 5.5 20.1 21.6 2009 02 03 17 18.61 -15 22.3 8.424 7.894 54.6 5.8 20.1 21.6 2009 02 08 17 20.78 -15 22.1 8.365 7.904 59.1 6.1 20.1 21.6 2009 02 13 17 22.80 -15 21.3 8.303 7.913 63.6 6.4 20.1 21.6 2009 02 18 17 24.66 -15 20.2 8.237 7.923 68.2 6.6 20.1 21.6 2009 02 23 17 26.35 -15 18.6 8.169 7.932 72.7 6.8 20.1 21.6 2009 02 28 17 27.86 -15 16.6 8.099 7.942 77.4 7.0 20.0 21.6 2009 03 05 17 29.17 -15 14.2 8.028 7.951 82.0 7.1 20.0 21.5 2009 03 10 17 30.29 -15 11.6 7.956 7.961 86.7 7.2 20.0 21.5 2009 03 15 17 31.20 -15 08.7 7.883 7.970 91.4 7.2 20.0 21.5 2009 03 20 17 31.91 -15 05.6 7.811 7.979 96.2 7.1 20.0 21.5 2009 03 25 17 32.40 -15 02.3 7.739 7.989 101.0 7.0 20.0 21.5 2009 03 30 17 32.67 -14 58.9 7.669 7.998 105.8 6.9 20.0 21.5 2009 04 04 17 32.72 -14 55.4 7.600 8.008 110.7 6.7 19.9 21.4 2009 04 09 17 32.56 -14 51.9 7.534 8.017 115.6 6.5 19.9 21.4 2009 04 14 17 32.19 -14 48.4 7.471 8.027 120.5 6.2 19.9 21.4 2009 04 19 17 31.61 -14 44.9 7.412 8.036 125.4 5.8 19.9 21.3 2009 04 24 17 30.82 -14 41.5 7.357 8.045 130.4 5.5 19.9 21.3 2009 04 29 17 29.85 -14 38.3 7.306 8.055 135.4 5.0 19.9 21.3 2009 05 04 17 28.70 -14 35.2 7.261 8.064 140.4 4.6 19.9 21.2 2009 05 09 17 27.38 -14 32.4 7.222 8.073 145.4 4.1 19.9 21.2 2009 05 14 17 25.92 -14 29.8 7.189 8.083 150.4 3.5 19.9 21.2 2009 05 19 17 24.33 -14 27.6 7.162 8.092 155.3 3.0 19.9 21.1 2009 05 24 17 22.64 -14 25.7 7.142 8.101 160.1 2.4 19.9 21.1 2009 05 29 17 20.86 -14 24.1 7.129 8.110 164.6 1.9 19.9 21.0 2009 06 03 17 19.02 -14 23.0 7.123 8.120 168.5 1.4 19.9 21.0 2009 06 08 17 17.15 -14 22.2 7.125 8.129 171.0 1.1 19.9 21.0 2009 06 13 17 15.27 -14 22.0 7.134 8.138 170.9 1.1 19.9 21.0 2009 06 18 17 13.41 -14 22.2 7.150 8.147 168.1 1.5 19.9 21.0 2009 06 23 17 11.58 -14 22.9 7.174 8.157 164.1 2.0 19.9 21.1 2009 06 28 17 09.83 -14 24.1 7.205 8.166 159.6 2.5 19.9 21.1 2009 07 03 17 08.15 -14 25.8 7.243 8.175 154.9 3.0 19.9 21.2 2009 07 08 17 06.59 -14 28.0 7.288 8.184 150.0 3.6 19.9 21.2 2009 07 13 17 05.16 -14 30.8 7.339 8.193 145.1 4.1 20.0 21.3 2009 07 18 17 03.87 -14 34.0 7.396 8.202 140.2 4.6 20.0 21.3 2009 07 23 17 02.74 -14 37.8 7.459 8.212 135.3 5.0 20.0 21.4 2009 07 28 17 01.78 -14 42.0 7.526 8.221 130.4 5.4 20.0 21.4 2009 08 02 17 01.01 -14 46.6 7.599 8.230 125.5 5.8 20.1 21.4 2009 08 07 17 00.43 -14 51.7 7.675 8.239 120.7 6.1 20.1 21.5 2009 08 12 17 00.04 -14 57.2 7.756 8.248 115.8 6.3 20.1 21.5 2009 08 17 16 59.86 -15 03.0 7.839 8.257 111.1 6.6 20.1 21.6 2009 08 22 16 59.87 -15 09.2 7.925 8.266 106.3 6.7 20.2 21.6 2009 08 27 17 00.09 -15 15.6 8.012 8.275 101.6 6.9 20.2 21.6 2009 09 01 17 00.52 -15 22.4 8.102 8.284 96.9 6.9 20.2 21.6 2009 09 06 17 01.14 -15 29.3 8.191 8.293 92.3 7.0 20.3 21.7 2009 09 11 17 01.95 -15 36.3 8.282 8.302 87.7 7.0 20.3 21.7 2009 09 16 17 02.95 -15 43.5 8.372 8.311 83.1 6.9 20.3 21.7 2009 09 21 17 04.14 -15 50.8 8.461 8.320 78.5 6.8 20.3 21.7 2009 09 26 17 05.51 -15 58.1 8.549 8.329 74.0 6.6 20.4 21.8

Back to Observable Comets

MPC CBAT ICQ

Valid HTML 4.01!